Погода в Гори

Погода в Гори : погода сейчас, прогноз погоды и архив. Всё, что Вы хотите узнать о погоде в Гори!

Поиск расширенной информации на нашем сайте:

Другие новости

Новости СМИ2

Главная страница сайта

Новости сайта

02.10.2013

Напоминаем, что на нашем новом сайте вы можете получить высокодетализированные прогнозы погоды по пунктам России, СНГ и мира (включающие важные для авиации метеовеличины, такие как направление и скорость ветра, видимость, явления погоды, количество и форма облачности, нижняя и верхняя граница облачности), а также ознакомиться с разнообразными материалами по авиационной метеорологии и подборкой полезных ссылок на эту тему.

Сайт Метеоцентр.Азия посвящён разработке технологий оптимизации авиаметеорологического обслуживания, включая проектирование и перспективное создание нескольких автоматизированных авиаметеорологических систем:
- система выпуска высокодетальных прогностических карт явлений погоды для нижнего воздушного пространства по России и ближнему зарубежью;
- система верификации прогнозов TAF (выпускаемых синоптиками официальных АМСГ РФ и ближнего зарубежья) и AUTOTAF (выпускаемых сайтом Метеоцентр.Азия) - выявление ошибок, онлайн-сопоставление с фактической погодой METAR, автоматическое внесение коррективов в прогнозы при резком отклонении фактической погоды от прогноза, подсчёт оправдываемости прогнозов по элементам и в целом;
- система обработки, анализа и отображения авиаметеорологической информации для применения провайдерами метеорологической информации.


Погода в Гори - сегодня

Время (UTC), дата Ветер
(°,м/с) 
Видим.   Явления Облачность Т
(°С)
Тd
(°С)
f(%) Тe
(°С)
Pmin
(гПа)
dP
(гПа)
Po
(мм)
O2
(г/м3)
Тmin Tmax R s Состояние
почвы
18 09.02.17 090 (В) н/о    10/10 600 м 
[Sc]
+0.8 -1.2 86 -3  1028.4  715  287    +5       
21 09.02.17 090 (В) н/о    10/10 600 м 
[Sc]
+0.3 -1.1 90 -1  1028.3  -0.2  715  288           
00 10.02.17 090 (В) н/о    10/10 600 м 
[Sc]
-0.1 -1.3 92 -1  1027.9  -0.5  715  288           
06 10.02.17 тихо ()   2000 м  слаб. снег  10/10 600 м 
[Ns]
-0.7 -0.7 100 -1  1029.1  0.9  716  289  -0.7    0.0  равномерный
сухой снег
100% 
09 10.02.17 110 (В) 2000 м  слаб. снег  10/10 600 м 
[Ns]
+0.2 +0.2 100 -2  1028.1  -0.6  715  288           
12 10.02.17 120 (ЮВ) 2000 м  снег  10/10 600 м 
[Ns]
+0.6 +0.6 100 1027.6  -0.4  715  287           
18 10.02.17 тихо ()   н/о  слаб. снег  10/10 600 м 
[Ns]
-0.7 -0.7 100 -1  1028.8  0.1  715  289    +1.5     
21 10.02.17 120 (ЮВ) н/о  слаб. снег  10/10 600 м 
[Ns]
-1 -1.3 98 -2  1029.1  0.3  716  289           
00 11.02.17 120 (ЮВ) н/о  слаб. снег  10/10 600 м 
[Ns]
-1.8 -1.8 100 -3  1029.3  0.2  716  290           
06 11.02.17 120 (ЮВ) 2000 м  слаб. снег  10/10 600 м 
[Ns]
-2.2 -2.2 100 -3  1030.6  0.6  716  291  -2.3       
09 11.02.17 тихо ()   10 км  в посл. час снег  10/10 600 м 
[Sc]
-0.5 -2.3 88 -1  1030.8  0.6  717  290           
12 11.02.17 120 (ЮВ) 10 км    10/10 600 м 
[Sc]
+0.5 -5.3 65 -2  1029.8  -0.6  716  289           
18 11.02.17 130 (ЮВ) н/о  снег  10/10 600 м 
[Ns]
-2 -2.9 94 -4  1030.5  0.2  716  291    +1     
21 11.02.17 120 (ЮВ) н/о  слаб. снег  10/10 600 м 
[Ns]
-2.4 -3 96 -3  1030.6  716  291           
00 12.02.17 120 (ЮВ) н/о  слаб. снег  10/10 600 м 
[Ns]
-2.6 -2.9 98 -4  1031  0.2  717  292           
06 12.02.17 тихо ()   10 км  слаб. снег  10/10 600 м 
[Ns]
-2.2 -2.8 96 -2  1031.8  0.8  717  292  -3    0.8     
09 12.02.17 110 (В) 20000 м  {снег}  10/10 600 м 
[Sc]
+0.1 -3.3 78 -3  1032  0.9  718  289           
12 12.02.17 130 (ЮВ) 20000 м    9/3 600 м средняя 
[Sc|Ac und]
+1.2 -4 68 -2  1030.6  -1.1  717  288           
18 12.02.17 100 (В) н/о    5/3 600 м средняя 
[Sc|Ac und]
-2.4 -5.4 80 -4  1032.5  1.3  718  292    +3.2  0.2     
21 12.02.17 100 (В) н/о    9/5 600 м средняя 
[Sc|Ac und]
-1.9 -6 74 -3  1032.8  0.4  718  292           
00 13.02.17 090 (В) н/о    9/9 600 м 
[Sc]
-2 -5.7 76 -5  1032.4  -0.4  718  292           
03 13.02.17 120 (ЮВ) н/о    9/9 600 м 
[Sc]
-2.2 -4.1 87 -5  1030.9  -1.4  717  291  -2.4         
06 13.02.17 120 (ЮВ) 20000 м    8/5 600 м средняя 
[Sc|Ac und]
-1.6 -5.2 76 -3  1032  1.1  717  291  -2.6         
09 13.02.17 090 (В) 20000 м    8/3 600 м средняя, верхняя 
[Sc|Ac und|Ci]
+2 -5.2 59 -1  1029.7  -1.1  717  287           
12 13.02.17 090 (В) 20000 м    8/3 600 м средняя, верхняя 
[Sc|Ac und|Ci]
+2.7 -6.2 52 -1  1027.3  -2.1  715  286           
Время (UTC), дата Ветер
(°,м/с) 
Видим.   Явления Облачность Т
(°С)
Тd
(°С)
f(%) Тe
(°С)
Pmin
(гПа)
dP
(гПа)
Po
(мм)
O2
(г/м3)
Тmin Tmax R s Состояние
почвы

Для получения пояснительной информации подведите курсор к названию столбца.

ПОГОДА в Гори - архив

Всё, что Вы хотите узнать о погоде в Гори - удобно и подробно!

Выберите нужную дату (начиная с 1 января 2015* года) и нажмите кнопку "Найти".
Будут отображены архивные сводки погоды по пункту Гори, начиная с указанной даты.


Отображать данные в формате CSV (для использования в таблицах Excel)


Внимание! Наш архив погоды предназначен исключительно для личного некоммерческого использования в познавательных целях. Если Вам необходимы официальные справки о состоянии погоды (для производственных, юридических, коммерческих и т.п. целей), обращайтесь в органы Росгидромета.

*Примечание: данная дата относится к архиву по метеостанциям СССР (Россия, СНГ, Балтия).
Архив по метеостанциям Зарубежной Европы и Азии (кроме Китая) хранится 10 дней, по другим регионам земного шара (Китай, Африка, Америка, Австралия, Океания) - 1 день.

Гори - район местоположения метеостанции


Название, широта, долгота, высота метеостанции:
Гори 42°ш. 44.1°д. 590 м над ур. моря [Грузия]

Дополнительная информация

В oтличие oт бoльшинства пoгoдных сайтoв мы публикуем пoдрoбную метеoинфoрмацию в детальнoм прoфессиoнальнoм фoрмате.

Характеристики температуры и влажнoсти вoздуха измеряются на высoте 2 м в тени вдали oт зданий и деревьев.
Скoрoсть ветра измеряется на высoте 10 м (на урoвне рoста челoвека скoрoсть ветра ниже в 1.5-2 раза). Если метеoстанция нахoдится в гoрoде или в лесу, тo скoрoсть ветра занижена на 2-4 м/с пo сравнению с oткрытым местoм. Скoрoсть ветра над акватoриями крупных рек и oзёр, а также на вершинах хoлмoв на 2-5 м/с выше, чем в oбычных услoвиях.
Атмoсфернoе давление в разных тoчках местнoсти мoжет значительнo oтличаться oт давления на метеoстанции, в зависимoсти oт услoвий рельефа (при пoдъёме на 10 м давление пoнижается примернo на 1 мм рт.ст.).